Boone, IA

2:19 AM CDT on August 24, 2017 (GMT -0500)
Boone Municipal

Weather History for KBNW - May, 2014

Change the Weather History Date:

Saturday, May 10, 2014

  Actual Average Record
Temperature  
Mean Temperature 64 °F -  
Max Temperature 80 °F 71 °F 96 °F (2011)
Min Temperature 48 °F 45 °F 29 °F (1981)
Degree Days  
Heating Degree Days 1    
Growing Degree Days 14 (Base 50)    
Moisture  
Dew Point 43 °F    
Average Humidity 52    
Maximum Humidity 77    
Minimum Humidity 24    
Precipitation  
Precipitation 0.00 in - - ()
Sea Level Pressure  
Sea Level Pressure 29.80 in    
Wind  
Wind Speed 7 mph (SSE)    
Max Wind Speed 25 mph    
Max Gust Speed 34 mph    
Visibility 10 miles    
Events      
Averages and records for this station are not official NWS values.
T = Trace of Precipitation, MM = Missing Value Source: NWS Daily Summary

Daily Weather History Graph

Daily Weather History Graph

Search for Another Location

Airport or City:

Trip Planner

Search our weather history database for the weather conditions in past years. The results will help you decide how hot, cold, wet, or windy it might be!

Date:

Astronomy

May. 10, 2014 Rise Set
Actual Time 6:00 AM CDT 8:24 PM CDT
Civil Twilight 5:28 AM CDT 8:55 PM CDT
Nautical Twilight 4:49 AM CDT 9:34 PM CDT
Astronomical Twilight 4:06 AM CDT 10:18 PM CDT
Moon 4:16 PM CDT (5/10) 3:38 AM CDT (5/10)
Length of Visible Light 15h 26m
Length of Day
14h 24m
Waxing Gibbous, 82% of the Moon is Illuminated
May 10
Waxing Gibbous
May 14
Full
May 21
Last Quarter
May 28
New
Jun 5
First Quarter

Hourly Weather History & Observations

Time (CDT) Temp. Dew Point Humidity Pressure Visibility Wind Dir Wind Speed Gust Speed Precip Events Conditions
12:15 AM 53.6 °F 35.6 °F 51% 29.84 in 10.0 mi Calm Calm - N/A   Clear
12:35 AM 53.6 °F 35.6 °F 51% 29.84 in 10.0 mi West 3.5 mph - N/A   Clear
12:55 AM 55.4 °F 35.6 °F 47% 29.85 in - Calm Calm - N/A   Clear
1:15 AM 55.4 °F 35.6 °F 47% 29.85 in 10.0 mi Calm Calm - N/A   Clear
1:35 AM 53.6 °F 35.6 °F 51% 29.85 in 10.0 mi Calm Calm - N/A   Clear
1:55 AM 50.0 °F 37.4 °F 62% 29.85 in 10.0 mi Calm Calm - N/A   Clear
2:15 AM 50.0 °F 35.6 °F 58% 29.84 in 10.0 mi Calm Calm - N/A   Partly Cloudy
2:35 AM 50.0 °F 37.4 °F 62% 29.84 in 10.0 mi Calm Calm - N/A   Scattered Clouds
2:55 AM 50.0 °F 37.4 °F 62% 29.84 in 10.0 mi Calm Calm - N/A   Partly Cloudy
3:15 AM 51.8 °F 37.4 °F 58% 29.84 in 10.0 mi Calm Calm - N/A   Clear
3:35 AM 50.0 °F 37.4 °F 62% 29.84 in 10.0 mi Calm Calm - N/A   Partly Cloudy
3:55 AM 48.2 °F 37.4 °F 66% 29.84 in 10.0 mi Calm Calm - N/A   Partly Cloudy
4:15 AM 50.0 °F 37.4 °F 62% 29.84 in 10.0 mi Calm Calm - N/A   Clear
4:35 AM 48.2 °F 37.4 °F 66% 29.84 in 10.0 mi Calm Calm - N/A   Clear
4:55 AM 48.2 °F 37.4 °F 66% 29.84 in 10.0 mi East 4.6 mph - N/A   Clear
5:15 AM 48.2 °F 37.4 °F 66% 29.84 in 10.0 mi Calm Calm - N/A   Clear
5:35 AM 50.0 °F 37.4 °F 62% 29.85 in 10.0 mi Calm Calm - N/A   Clear
5:55 AM 48.2 °F 39.2 °F 71% 29.85 in 10.0 mi East 4.6 mph - N/A   Scattered Clouds
6:15 AM 48.2 °F 39.2 °F 71% 29.85 in 10.0 mi ESE 3.5 mph - N/A   Partly Cloudy
6:35 AM 48.2 °F 39.2 °F 71% 29.86 in 10.0 mi SE 4.6 mph - N/A   Scattered Clouds
6:55 AM 50.0 °F 42.8 °F 76% 29.86 in 10.0 mi Calm Calm - N/A   Mostly Cloudy
7:15 AM 51.8 °F 42.8 °F 71% 29.87 in 10.0 mi SE 3.5 mph - N/A   Overcast
7:35 AM 53.6 °F 42.8 °F 67% 29.87 in 10.0 mi SSE 4.6 mph - N/A   Overcast
7:55 AM 53.6 °F 42.8 °F 67% 29.87 in 10.0 mi South 6.9 mph - N/A   Mostly Cloudy
8:15 AM 55.4 °F 44.6 °F 67% 29.87 in 10.0 mi South 6.9 mph - N/A   Mostly Cloudy
8:55 AM 57.2 °F 46.4 °F 67% 29.87 in 10.0 mi Calm Calm - N/A   Mostly Cloudy
9:15 AM 57.2 °F 48.2 °F 72% 29.85 in 8.0 mi SSE 9.2 mph - N/A   Mostly Cloudy
9:35 AM 57.2 °F 50.0 °F 77% 29.85 in 10.0 mi SSE 6.9 mph - N/A   Mostly Cloudy
9:55 AM 59.0 °F 50.0 °F 72% 29.86 in 9.0 mi SE 8.1 mph - N/A   Mostly Cloudy
10:15 AM 62.6 °F 50.0 °F 63% 29.86 in 10.0 mi SSE 6.9 mph - N/A   Scattered Clouds
10:35 AM 66.2 °F 48.2 °F 52% 29.86 in 10.0 mi South 12.7 mph - N/A   Scattered Clouds
10:55 AM 68.0 °F 48.2 °F 49% 29.84 in 10.0 mi South 15.0 mph - N/A   Scattered Clouds
11:15 AM 69.8 °F 46.4 °F 43% 29.84 in 10.0 mi South 15.0 mph - N/A   Scattered Clouds
11:35 AM 69.8 °F 46.4 °F 43% 29.84 in 10.0 mi South 15.0 mph - N/A   Mostly Cloudy
11:55 AM 69.8 °F 44.6 °F 40% 29.85 in 9.0 mi South 11.5 mph 20.7 mph N/A   Overcast
12:15 PM 69.8 °F 44.6 °F 40% 29.85 in 9.0 mi South 12.7 mph - N/A   Overcast
12:35 PM 71.6 °F 44.6 °F 38% 29.84 in 10.0 mi SSE 12.7 mph 18.4 mph N/A   Scattered Clouds
12:55 PM 71.6 °F 46.4 °F 41% 29.82 in 10.0 mi SSE 16.1 mph - N/A   Clear
1:15 PM 71.6 °F 46.4 °F 41% 29.80 in 10.0 mi SE 13.8 mph - N/A   Scattered Clouds
1:35 PM 71.6 °F 46.4 °F 41% 29.79 in 10.0 mi SE 16.1 mph - N/A   Overcast
1:55 PM 73.4 °F 42.8 °F 33% 29.78 in 9.0 mi SSE 16.1 mph 23.0 mph N/A   Overcast
2:15 PM 75.2 °F 42.8 °F 31% 29.78 in 9.0 mi SSE 13.8 mph 24.2 mph N/A   Mostly Cloudy
2:35 PM 75.2 °F 41.0 °F 29% 29.78 in 10.0 mi South 19.6 mph 28.8 mph N/A   Scattered Clouds
2:55 PM 77.0 °F 41.0 °F 28% 29.77 in 10.0 mi South 21.9 mph 27.6 mph N/A   Mostly Cloudy
3:15 PM 78.8 °F 41.0 °F 26% 29.75 in 10.0 mi SSE 23.0 mph 31.1 mph N/A   Partly Cloudy
3:35 PM 78.8 °F 41.0 °F 26% 29.73 in 9.0 mi SSE 25.3 mph 34.5 mph N/A   Clear
3:55 PM 80.6 °F 41.0 °F 24% 29.71 in 9.0 mi SSE 23.0 mph 31.1 mph N/A   Clear
4:15 PM 80.6 °F 42.8 °F 26% 29.72 in 6.0 mi South 20.7 mph 33.4 mph N/A   Haze
4:35 PM 77.0 °F 42.8 °F 29% 29.73 in 10.0 mi South 19.6 mph 27.6 mph N/A   Partly Cloudy
4:55 PM 77.0 °F 42.8 °F 29% 29.71 in 9.0 mi South 25.3 mph 32.2 mph N/A   Clear
5:15 PM 77.0 °F 44.6 °F 32% 29.71 in 10.0 mi South 20.7 mph 32.2 mph N/A   Clear
5:35 PM 75.2 °F 44.6 °F 34% 29.72 in 10.0 mi South 19.6 mph 26.5 mph N/A   Mostly Cloudy
5:55 PM 73.4 °F 44.6 °F 36% 29.71 in 10.0 mi SSE 21.9 mph - N/A   Overcast
6:15 PM 73.4 °F 44.6 °F 36% 29.71 in 10.0 mi South 19.6 mph 26.5 mph N/A   Overcast
6:35 PM 73.4 °F 44.6 °F 36% 29.71 in 9.0 mi SSE 17.3 mph - N/A   Overcast
6:55 PM 73.4 °F 46.4 °F 38% 29.71 in 9.0 mi South 20.7 mph - N/A   Mostly Cloudy
7:15 PM 73.4 °F 46.4 °F 38% 29.72 in 10.0 mi SSE 15.0 mph 23.0 mph N/A   Scattered Clouds
7:35 PM 71.6 °F 48.2 °F 43% 29.72 in 10.0 mi SE 18.4 mph - N/A   Scattered Clouds
7:55 PM 71.6 °F 48.2 °F 43% 29.72 in 10.0 mi SE 15.0 mph - N/A   Partly Cloudy
8:15 PM 69.8 °F 48.2 °F 46% 29.73 in 10.0 mi SE 15.0 mph - N/A   Clear
8:35 PM 68.0 °F 48.2 °F 49% 29.73 in 10.0 mi ESE 11.5 mph - N/A   Scattered Clouds
8:55 PM 66.2 °F 48.2 °F 52% 29.73 in 10.0 mi ESE 8.1 mph - N/A   Partly Cloudy
9:15 PM 64.4 °F 48.2 °F 56% 29.74 in 10.0 mi ESE 9.2 mph - N/A   Clear
9:35 PM 62.6 °F 48.2 °F 59% 29.76 in 10.0 mi North 11.5 mph - N/A   Clear
9:55 PM 68.0 °F 50.0 °F 52% 29.77 in 10.0 mi SE 10.4 mph 20.7 mph N/A   Clear
10:15 PM 60.8 °F 50.0 °F 68% 29.78 in 10.0 mi East 10.4 mph 16.1 mph N/A   Clear
10:35 PM 62.6 °F 50.0 °F 63% 29.77 in 10.0 mi SE 12.7 mph - N/A   Clear
10:55 PM 60.8 °F 50.0 °F 68% 29.79 in 10.0 mi ENE 5.8 mph - N/A   Clear
11:15 PM 60.8 °F 50.0 °F 68% 29.78 in 10.0 mi ESE 5.8 mph - N/A   Clear
11:35 PM 60.8 °F 50.0 °F 68% 29.78 in 10.0 mi SE 6.9 mph - N/A   Clear
11:55 PM 59.0 °F 50.0 °F 72% 29.79 in 10.0 mi ESE 3.5 mph - N/A   Clear